Change the Weather History Date:

Monday, May 27, 2013

  Actual Average (LHBP) Record (LHBP)
Temperature  
Mean Temperature 50 °F -  
Max Temperature 57 °F 72 °F 87 °F (2000)
Min Temperature 44 °F 51 °F 41 °F (2013)
Degree Days  
Heating Degree Days 14    
Moisture  
Dew Point 46 °F    
Average Humidity 82    
Maximum Humidity 100    
Minimum Humidity 63    
Precipitation  
Precipitation 0.00 in - - ()
Sea Level Pressure  
Sea Level Pressure 29.80 in    
Wind  
Wind Speed 6 mph ()    
Max Wind Speed 11 mph    
Max Gust Speed 22 mph    
Visibility 6.1 miles    
Events Rain    
Averages and records for this station are not official NWS values.
T = Trace of Precipitation, MM = Missing Value Source: Averaged Metar Reports

Daily Weather History Graph

Daily Weather History Graph

Search for Another Location

Airport or City:

Trip Planner

Search our weather history database for the weather conditions in past years. The results will help you decide how hot, cold, wet, or windy it might be!

Date:

Astronomy

May. 27, 2013 Rise Set
Actual Time 4:51 AM CEST 8:22 PM CEST
Civil Twilight 4:13 AM CEST 9:00 PM CEST
Nautical Twilight 3:22 AM CEST 9:50 PM CEST
Astronomical Twilight 2:15 AM CEST 10:58 PM CEST
Moon 10:42 PM CEST (5/27) 7:09 AM CEST (5/27)
Length of Visible Light 16h 47m
Length of Day
15h 31m
Waning Gibbous, 93% of the Moon is Illuminated
May 27
Waning Gibbous
May 31
Last Quarter
Jun 8
New
Jun 16
First Quarter
Jun 23
Full

Hourly Weather History & Observations

Time (CEST) Temp. Windchill Dew Point Humidity Pressure Visibility Wind Dir Wind Speed Gust Speed Precip Events Conditions
12:15 AM 50.0 °F - 48.2 °F 94% 29.77 in - West 6.7 mph - N/A   Clear
12:45 AM 48.2 °F - 46.4 °F 93% 29.77 in - West 6.7 mph - N/A   Clear
1:15 AM 48.2 °F - 44.6 °F 87% 29.77 in - West 8.9 mph - N/A   Clear
1:45 AM 48.2 °F - 42.8 °F 82% 29.77 in - West 8.9 mph - N/A   Clear
2:15 AM 46.4 °F 42.0 °F 42.8 °F 87% 29.77 in - West 8.9 mph - N/A   Clear
2:45 AM 46.4 °F 42.0 °F 41.0 °F 81% 29.80 in - West 8.9 mph - N/A   Clear
3:15 AM 46.4 °F 43.0 °F 41.0 °F 81% 29.80 in - West 6.7 mph - N/A   Clear
3:45 AM - - - N/A% - 5.0 mi WSW 8.9 mph - N/A Rain Rain
4:15 AM 44.6 °F 40.8 °F 41.0 °F 87% 29.80 in - West 6.7 mph - N/A   Clear
4:45 AM 44.6 °F 40.8 °F 41.0 °F 87% 29.77 in - West 6.7 mph - N/A   Clear
5:15 AM 46.4 °F 44.4 °F 41.0 °F 81% 29.77 in - West 4.5 mph - N/A   Clear
5:45 AM 46.4 °F 44.4 °F 42.8 °F 87% 29.77 in 6.2 mi West 4.5 mph - N/A   Scattered Clouds
6:15 AM 46.4 °F 44.4 °F 42.8 °F 87% 29.80 in 6.2 mi SW 4.5 mph - N/A   Mostly Cloudy
6:45 AM - - - N/A% - 6.2 mi WSW 6.7 mph - N/A   Overcast
7:15 AM 48.2 °F - 42.8 °F 82% 29.80 in 6.2 mi SW 4.5 mph - N/A   Mostly Cloudy
7:45 AM 48.2 °F - 44.6 °F 87% 29.80 in 6.2 mi SW 4.5 mph - N/A   Mostly Cloudy
7:51 AM 48.2 °F - 44.6 °F 87% 29.80 in 6.2 mi SW 6.7 mph - N/A Rain Light Rain
8:15 AM 48.2 °F - 44.6 °F 87% 29.80 in 6.2 mi SSW 4.5 mph - N/A Rain Light Rain
8:45 AM 48.2 °F - 44.6 °F 87% 29.83 in 6.2 mi SW 6.7 mph - N/A Rain Light Rain
9:15 AM 48.2 °F - 44.6 °F 87% 29.83 in 6.2 mi SW 4.5 mph - N/A Rain Light Rain
9:45 AM - - - N/A% - 6.2 mi West 6.7 mph - N/A   Overcast
10:15 AM 50.0 °F - 44.6 °F 82% 29.83 in 6.2 mi West 4.5 mph - N/A   Mostly Cloudy
10:45 AM 51.8 °F - 42.8 °F 71% 29.83 in 6.2 mi West 4.5 mph - N/A   Mostly Cloudy
11:15 AM 55.4 °F - 44.6 °F 67% 29.83 in 6.2 mi NW 4.5 mph - N/A   Scattered Clouds
11:45 AM 55.4 °F - 44.6 °F 67% 29.83 in 6.2 mi West 2.2 mph - N/A   Scattered Clouds
12:15 PM 55.4 °F - 42.8 °F 63% 29.80 in 6.2 mi WSW 6.7 mph - N/A   Scattered Clouds
12:45 PM - - - N/A% - 6.2 mi West 6.7 mph - N/A   Overcast
1:15 PM 55.4 °F - 44.6 °F 67% 29.80 in 6.2 mi West 2.2 mph - N/A   Mostly Cloudy
1:24 PM 53.6 °F - 48.2 °F 82% 29.80 in 6.2 mi WSW 11.2 mph 22.4 mph N/A Rain Light Rain Showers
1:45 PM 55.4 °F - 50.0 °F 82% 29.80 in 6.2 mi WSW 6.7 mph - N/A   Scattered Clouds
2:15 PM 57.2 °F - 44.6 °F 63% 29.80 in 6.2 mi WSW 8.9 mph - N/A   Mostly Cloudy
2:28 PM 57.2 °F - 46.4 °F 67% 29.80 in 6.2 mi WSW 8.9 mph - N/A Rain Light Rain Showers
2:45 PM 57.2 °F - 46.4 °F 67% 29.80 in 6.2 mi WSW 6.7 mph - N/A Rain Light Rain Showers
3:15 PM 57.2 °F - 44.6 °F 63% 29.80 in 6.2 mi West 8.9 mph - N/A Rain Light Rain Showers
3:45 PM - - - N/A% - 6.2 mi WSW 8.9 mph - N/A   Overcast
4:15 PM 55.4 °F - 48.2 °F 77% 29.80 in 6.2 mi SW 8.9 mph - N/A   Mostly Cloudy
4:45 PM 57.2 °F - 48.2 °F 72% 29.80 in 6.2 mi SW 8.9 mph - N/A   Mostly Cloudy
5:15 PM 55.4 °F - 48.2 °F 77% 29.80 in 6.2 mi WSW 6.7 mph - N/A   Mostly Cloudy
5:45 PM 55.4 °F - 48.2 °F 77% 29.80 in 6.2 mi WSW 6.7 mph - N/A   Mostly Cloudy
6:15 PM 57.2 °F - 48.2 °F 72% 29.80 in 6.2 mi SW 6.7 mph - N/A   Mostly Cloudy
6:45 PM - - - N/A% - 6.2 mi SSW 6.7 mph - N/A   Overcast
7:15 PM 55.4 °F - 50.0 °F 82% 29.80 in 6.2 mi SW 6.7 mph - N/A   Mostly Cloudy
7:45 PM 55.4 °F - 50.0 °F 82% 29.83 in 6.2 mi SSW 6.7 mph - N/A   Mostly Cloudy
8:15 PM 53.6 °F - 51.8 °F 94% 29.80 in 6.2 mi SW 4.5 mph - N/A   Mostly Cloudy
8:45 PM 53.6 °F - 51.8 °F 94% 29.83 in 6.2 mi SW 4.5 mph - N/A   Overcast
9:15 PM 53.6 °F - 51.8 °F 94% 29.83 in 6.2 mi SSW 4.5 mph - N/A   Overcast
9:45 PM - - - N/A% - 3.1 mi SSW 4.5 mph - N/A Rain Rain
10:15 PM 53.6 °F - 50.0 °F 88% 29.83 in - SW 6.7 mph - N/A   Clear
10:45 PM 53.6 °F - 51.8 °F 94% 29.83 in - SW 6.7 mph - N/A   Clear
11:15 PM 53.6 °F - 51.8 °F 94% 29.83 in - SSW 8.9 mph - N/A   Clear
11:45 PM 51.8 °F - 51.8 °F 100% 29.83 in - SSW 8.9 mph - N/A   Clear